Year,Month,Day,Hour,Minute,Value (Times are PST for windgust in km/hr)
2013,02,20,00,09,1.60
2013,02,20,00,22,1.60
2013,02,20,00,32,1.60
2013,02,20,00,37,1.60
2013,02,20,00,58,1.60
2013,02,20,01,02,1.60
2013,02,20,01,05,1.60
2013,02,20,01,07,1.60
2013,02,20,01,08,3.20
2013,02,20,01,09,3.20
2013,02,20,01,11,1.60
2013,02,20,01,13,3.20
2013,02,20,01,14,3.20
2013,02,20,01,16,1.60
2013,02,20,01,17,1.60
2013,02,20,01,21,1.60
2013,02,20,01,32,1.60
2013,02,20,01,38,1.60
2013,02,20,01,41,1.60
2013,02,20,01,44,1.60
2013,02,20,01,51,1.60
2013,02,20,01,57,1.60
2013,02,20,02,00,1.60
2013,02,20,02,06,1.60
2013,02,20,02,33,1.60
2013,02,20,03,02,1.60
2013,02,20,03,10,1.60
2013,02,20,03,22,1.60
2013,02,20,03,46,1.60
2013,02,20,03,57,1.60
2013,02,20,04,02,1.60
2013,02,20,04,05,1.60
2013,02,20,04,08,1.60
2013,02,20,05,17,1.60
2013,02,20,05,27,1.60
2013,02,20,05,39,1.60
2013,02,20,07,24,1.60
2013,02,20,07,27,3.20
2013,02,20,07,31,1.60
2013,02,20,08,33,1.60
2013,02,20,09,02,1.60
2013,02,20,09,12,1.60
2013,02,20,09,13,3.20
2013,02,20,09,14,3.20
2013,02,20,09,15,3.20
2013,02,20,09,18,1.60
2013,02,20,09,19,3.20
2013,02,20,09,20,1.60
2013,02,20,09,21,1.60
2013,02,20,09,23,3.20
2013,02,20,09,24,3.20
2013,02,20,09,27,1.60
2013,02,20,09,30,1.60
2013,02,20,09,36,1.60
2013,02,20,09,37,4.80
2013,02,20,09,38,1.60
2013,02,20,09,39,3.20
2013,02,20,09,47,1.60
2013,02,20,09,48,1.60
2013,02,20,09,51,3.20
2013,02,20,09,56,6.40
2013,02,20,09,57,3.20
2013,02,20,09,58,3.20
2013,02,20,09,59,1.60
2013,02,20,10,03,6.40
2013,02,20,10,04,1.60
2013,02,20,10,08,3.20
2013,02,20,10,09,3.20
2013,02,20,10,12,3.20
2013,02,20,10,13,1.60
2013,02,20,10,14,1.60
2013,02,20,10,19,3.20
2013,02,20,10,20,1.60
2013,02,20,10,21,1.60
2013,02,20,10,26,1.60
2013,02,20,10,31,3.20
2013,02,20,10,32,1.60
2013,02,20,10,33,6.40
2013,02,20,10,34,1.60
2013,02,20,10,35,3.20
2013,02,20,10,36,1.60
2013,02,20,10,37,1.60
2013,02,20,10,38,1.60
2013,02,20,10,39,8.10
2013,02,20,10,40,3.20
2013,02,20,10,41,1.60
2013,02,20,10,42,6.40
2013,02,20,10,43,3.20
2013,02,20,10,44,1.60
2013,02,20,10,45,6.40
2013,02,20,10,46,8.10
2013,02,20,10,47,1.60
2013,02,20,10,48,1.60
2013,02,20,10,49,8.10
2013,02,20,10,50,8.10
2013,02,20,10,51,3.20
2013,02,20,10,52,8.10
2013,02,20,10,53,1.60
2013,02,20,10,56,3.20
2013,02,20,10,57,1.60
2013,02,20,10,58,1.60
2013,02,20,11,00,3.20
2013,02,20,11,01,6.40
2013,02,20,11,02,3.20
2013,02,20,11,04,3.20
2013,02,20,11,05,6.40
2013,02,20,11,06,6.40
2013,02,20,11,07,6.40
2013,02,20,11,08,6.40
2013,02,20,11,12,1.60
2013,02,20,11,13,8.10
2013,02,20,11,14,8.10
2013,02,20,11,15,6.40
2013,02,20,11,16,6.40
2013,02,20,11,17,9.60
2013,02,20,11,18,11.30
2013,02,20,11,19,8.10
2013,02,20,11,20,6.40
2013,02,20,11,21,1.60
2013,02,20,11,22,6.40
2013,02,20,11,23,8.10
2013,02,20,11,24,8.10
2013,02,20,11,25,6.40
2013,02,20,11,26,9.60
2013,02,20,11,27,8.10
2013,02,20,11,28,6.40
2013,02,20,11,29,8.10
2013,02,20,11,30,6.40
2013,02,20,11,31,1.60
2013,02,20,11,32,9.60
2013,02,20,11,33,1.60
2013,02,20,11,34,9.60
2013,02,20,11,35,11.30
2013,02,20,11,36,3.20
2013,02,20,11,37,6.40
2013,02,20,11,38,8.10
2013,02,20,11,39,8.10
2013,02,20,11,40,8.10
2013,02,20,11,41,6.40
2013,02,20,11,42,8.10
2013,02,20,11,43,3.20
2013,02,20,11,44,1.60
2013,02,20,11,45,6.40
2013,02,20,11,46,1.60
2013,02,20,11,47,1.60
2013,02,20,11,48,3.20
2013,02,20,11,53,8.10
2013,02,20,11,54,8.10
2013,02,20,11,55,6.40
2013,02,20,11,57,6.40
2013,02,20,11,58,8.10
2013,02,20,11,59,8.10
2013,02,20,12,00,8.10
2013,02,20,12,04,8.10
2013,02,20,12,05,6.40
2013,02,20,12,06,6.40
2013,02,20,12,12,1.60
2013,02,20,12,13,8.10
2013,02,20,12,14,6.40
2013,02,20,12,16,6.40
2013,02,20,12,17,6.40
2013,02,20,12,18,1.60
2013,02,20,12,19,9.60
2013,02,20,12,20,6.40
2013,02,20,12,22,8.10
2013,02,20,12,23,8.10
2013,02,20,12,24,8.10
2013,02,20,12,25,8.10
2013,02,20,12,26,8.10
2013,02,20,12,27,6.40
2013,02,20,12,28,8.10
2013,02,20,12,29,6.40
2013,02,20,12,30,8.10
2013,02,20,12,32,1.60
2013,02,20,12,33,6.40
2013,02,20,12,34,6.40
2013,02,20,12,35,3.20
2013,02,20,12,36,6.40
2013,02,20,12,37,1.60
2013,02,20,12,38,3.20
2013,02,20,12,39,9.60
2013,02,20,12,40,6.40
2013,02,20,12,41,3.20
2013,02,20,12,42,8.10
2013,02,20,12,43,8.10
2013,02,20,12,44,8.10
2013,02,20,12,45,9.60
2013,02,20,12,46,9.60
2013,02,20,12,47,12.90
2013,02,20,12,48,12.90
2013,02,20,12,49,9.60
2013,02,20,12,50,12.90
2013,02,20,12,51,12.90
2013,02,20,12,52,6.40
2013,02,20,12,53,8.10
2013,02,20,12,54,1.60
2013,02,20,12,55,11.30
2013,02,20,12,56,8.10
2013,02,20,12,57,8.10
2013,02,20,12,58,8.10
2013,02,20,12,59,6.40
2013,02,20,13,00,8.10
2013,02,20,13,02,9.60
2013,02,20,13,03,1.60
2013,02,20,13,04,6.40
2013,02,20,13,05,6.40
2013,02,20,13,07,3.20
2013,02,20,13,08,6.40
2013,02,20,13,09,8.10
2013,02,20,13,10,9.60
2013,02,20,13,11,6.40
2013,02,20,13,12,9.60
2013,02,20,13,13,8.10
2013,02,20,13,15,1.60
2013,02,20,13,16,6.40
2013,02,20,13,17,3.20
2013,02,20,13,18,8.10
2013,02,20,13,19,9.60
2013,02,20,13,20,11.30
2013,02,20,13,21,6.40
2013,02,20,13,22,8.10
2013,02,20,13,23,3.20
2013,02,20,13,24,9.60
2013,02,20,13,25,8.10
2013,02,20,13,26,6.40
2013,02,20,13,27,8.10
2013,02,20,13,28,9.60
2013,02,20,13,29,9.60
2013,02,20,13,30,11.30
2013,02,20,13,31,6.40
2013,02,20,13,32,3.20
2013,02,20,13,33,8.10
2013,02,20,13,34,9.60
2013,02,20,13,35,9.60
2013,02,20,13,36,11.30
2013,02,20,13,37,6.40
2013,02,20,13,38,11.30
2013,02,20,13,39,3.20
2013,02,20,13,40,6.40
2013,02,20,13,41,11.30
2013,02,20,13,42,9.60
2013,02,20,13,43,3.20
2013,02,20,13,44,8.10
2013,02,20,13,45,11.30
2013,02,20,13,46,8.10
2013,02,20,13,47,6.40
2013,02,20,13,48,8.10
2013,02,20,13,49,3.20
2013,02,20,13,50,1.60
2013,02,20,13,52,6.40
2013,02,20,13,53,11.30
2013,02,20,13,54,11.30
2013,02,20,13,55,9.60
2013,02,20,13,56,3.20
2013,02,20,13,57,1.60
2013,02,20,13,58,8.10
2013,02,20,13,59,11.30
2013,02,20,14,00,3.20
2013,02,20,14,01,6.40
2013,02,20,14,02,12.90
2013,02,20,14,03,11.30
2013,02,20,14,04,9.60
2013,02,20,14,05,9.60
2013,02,20,14,06,1.60
2013,02,20,14,07,6.40
2013,02,20,14,08,8.10
2013,02,20,14,09,9.60
2013,02,20,14,10,8.10
2013,02,20,14,11,9.60
2013,02,20,14,12,3.20
2013,02,20,14,13,6.40
2013,02,20,14,14,8.10
2013,02,20,14,15,3.20
2013,02,20,14,16,6.40
2013,02,20,14,17,9.60
2013,02,20,14,18,8.10
2013,02,20,14,19,11.30
2013,02,20,14,20,11.30
2013,02,20,14,21,6.40
2013,02,20,14,22,9.60
2013,02,20,14,23,9.60
2013,02,20,14,24,14.50
2013,02,20,14,25,12.90
2013,02,20,14,26,16.10
2013,02,20,14,27,11.30
2013,02,20,14,28,9.60
2013,02,20,14,29,8.10
2013,02,20,14,30,9.60
2013,02,20,14,31,9.60
2013,02,20,14,32,11.30
2013,02,20,14,33,12.90
2013,02,20,14,34,9.60
2013,02,20,14,35,14.50
2013,02,20,14,36,14.50
2013,02,20,14,37,12.90
2013,02,20,14,38,14.50
2013,02,20,14,39,16.10
2013,02,20,14,40,9.60
2013,02,20,14,41,8.10
2013,02,20,14,42,6.40
2013,02,20,14,43,12.90
2013,02,20,14,44,3.20
2013,02,20,14,45,6.40
2013,02,20,14,46,6.40
2013,02,20,14,47,6.40
2013,02,20,14,48,11.30
2013,02,20,14,49,9.60
2013,02,20,14,50,9.60
2013,02,20,14,51,9.60
2013,02,20,14,52,8.10
2013,02,20,14,53,11.30
2013,02,20,14,54,11.30
2013,02,20,14,55,6.40
2013,02,20,14,56,8.10
2013,02,20,14,57,16.10
2013,02,20,14,58,9.60
2013,02,20,14,59,6.40
2013,02,20,15,00,3.20
2013,02,20,15,01,1.60
2013,02,20,15,02,11.30
2013,02,20,15,03,4.80
2013,02,20,15,04,9.60
2013,02,20,15,05,6.40
2013,02,20,15,06,9.60
2013,02,20,15,07,9.60
2013,02,20,15,08,9.60
2013,02,20,15,09,11.30
2013,02,20,15,10,6.40
2013,02,20,15,11,1.60
2013,02,20,15,12,8.10
2013,02,20,15,13,3.20
2013,02,20,15,14,3.20
2013,02,20,15,15,6.40
2013,02,20,15,17,9.60
2013,02,20,15,18,9.60
2013,02,20,15,19,9.60
2013,02,20,15,20,12.90
2013,02,20,15,21,6.40
2013,02,20,15,22,8.10
2013,02,20,15,23,11.30
2013,02,20,15,24,12.90
2013,02,20,15,25,12.90
2013,02,20,15,26,9.60
2013,02,20,15,27,6.40
2013,02,20,15,29,9.60
2013,02,20,15,30,11.30
2013,02,20,15,31,11.30
2013,02,20,15,32,8.10
2013,02,20,15,33,8.10
2013,02,20,15,34,8.10
2013,02,20,15,35,6.40
2013,02,20,15,36,8.10
2013,02,20,15,37,11.30
2013,02,20,15,38,11.30
2013,02,20,15,39,12.90
2013,02,20,15,40,17.70
2013,02,20,15,41,11.30
2013,02,20,15,42,16.10
2013,02,20,15,43,9.60
2013,02,20,15,44,11.30
2013,02,20,15,45,8.10
2013,02,20,15,46,9.60
2013,02,20,15,47,11.30
2013,02,20,15,48,11.30
2013,02,20,15,49,11.30
2013,02,20,15,50,8.10
2013,02,20,15,51,9.60
2013,02,20,15,52,8.10
2013,02,20,15,53,14.50
2013,02,20,15,54,14.50
2013,02,20,15,55,11.30
2013,02,20,15,56,11.30
2013,02,20,15,57,11.30
2013,02,20,15,58,8.10
2013,02,20,15,59,1.60
2013,02,20,16,00,9.60
2013,02,20,16,01,6.40
2013,02,20,16,02,8.10
2013,02,20,16,03,6.40
2013,02,20,16,04,11.30
2013,02,20,16,05,8.10
2013,02,20,16,06,14.50
2013,02,20,16,07,14.50
2013,02,20,16,08,11.30
2013,02,20,16,09,9.60
2013,02,20,16,10,11.30
2013,02,20,16,11,3.20
2013,02,20,16,12,1.60
2013,02,20,16,13,6.40
2013,02,20,16,14,9.60
2013,02,20,16,15,8.10
2013,02,20,16,16,11.30
2013,02,20,16,17,14.50
2013,02,20,16,18,17.70
2013,02,20,16,19,8.10
2013,02,20,16,20,3.20
2013,02,20,16,21,3.20
2013,02,20,16,22,6.40
2013,02,20,16,23,3.20
2013,02,20,16,25,8.10
2013,02,20,16,26,6.40
2013,02,20,16,27,11.30
2013,02,20,16,28,9.60
2013,02,20,16,29,8.10
2013,02,20,16,30,12.90
2013,02,20,16,31,6.40
2013,02,20,16,32,3.20
2013,02,20,16,33,6.40
2013,02,20,16,34,8.10
2013,02,20,16,35,8.10
2013,02,20,16,36,11.30
2013,02,20,16,37,8.10
2013,02,20,16,38,9.60
2013,02,20,16,39,14.50
2013,02,20,16,40,12.90
2013,02,20,16,41,8.10
2013,02,20,16,42,3.20
2013,02,20,16,43,8.10
2013,02,20,16,44,8.10
2013,02,20,16,45,1.60
2013,02,20,16,46,3.20
2013,02,20,16,47,9.60
2013,02,20,16,48,8.10
2013,02,20,16,49,6.40
2013,02,20,16,50,6.40
2013,02,20,16,51,6.40
2013,02,20,16,52,9.60
2013,02,20,16,53,6.40
2013,02,20,16,54,8.10
2013,02,20,16,55,8.10
2013,02,20,16,56,8.10
2013,02,20,16,59,3.20
2013,02,20,17,00,6.40
2013,02,20,17,01,3.20
2013,02,20,17,02,8.10
2013,02,20,17,03,8.10
2013,02,20,17,04,6.40
2013,02,20,17,05,12.90
2013,02,20,17,06,8.10
2013,02,20,17,07,6.40
2013,02,20,17,08,6.40
2013,02,20,17,09,9.60
2013,02,20,17,10,8.10
2013,02,20,17,11,1.60
2013,02,20,17,12,12.90
2013,02,20,17,13,8.10
2013,02,20,17,14,8.10
2013,02,20,17,15,9.60
2013,02,20,17,17,11.30
2013,02,20,17,18,11.30
2013,02,20,17,20,8.10
2013,02,20,17,21,8.10
2013,02,20,17,22,3.20
2013,02,20,17,23,6.40
2013,02,20,17,25,6.40
2013,02,20,17,26,3.20
2013,02,20,17,27,1.60
2013,02,20,17,28,1.60
2013,02,20,17,29,3.20
2013,02,20,17,33,3.20
2013,02,20,17,34,3.20
2013,02,20,17,35,6.40
2013,02,20,17,36,6.40
2013,02,20,17,37,6.40
2013,02,20,17,38,3.20
2013,02,20,17,39,1.60
2013,02,20,17,41,1.60
2013,02,20,17,43,1.60
2013,02,20,17,45,1.60
2013,02,20,17,46,1.60
2013,02,20,17,47,9.60
2013,02,20,17,48,1.60
2013,02,20,17,49,1.60
2013,02,20,17,50,1.60
2013,02,20,17,51,6.40
2013,02,20,17,52,3.20
2013,02,20,17,54,6.40
2013,02,20,17,56,3.20
2013,02,20,17,57,3.20
2013,02,20,17,58,6.40
2013,02,20,17,59,1.60
2013,02,20,18,00,6.40
2013,02,20,18,01,11.30
2013,02,20,18,02,9.60
2013,02,20,18,03,9.60
2013,02,20,18,04,12.90
2013,02,20,18,05,3.20
2013,02,20,18,06,1.60
2013,02,20,18,07,6.40
2013,02,20,18,08,1.60
2013,02,20,18,09,8.10
2013,02,20,18,10,9.60
2013,02,20,18,11,11.30
2013,02,20,18,12,8.10
2013,02,20,18,13,8.10
2013,02,20,18,14,9.60
2013,02,20,18,15,6.40
2013,02,20,18,16,9.60
2013,02,20,18,17,14.50
2013,02,20,18,18,3.20
2013,02,20,18,19,6.40
2013,02,20,18,20,6.40
2013,02,20,18,21,3.20
2013,02,20,18,22,1.60
2013,02,20,18,23,6.40
2013,02,20,18,24,6.40
2013,02,20,18,25,11.30
2013,02,20,18,26,11.30
2013,02,20,18,27,12.90
2013,02,20,18,28,9.60
2013,02,20,18,29,6.40
2013,02,20,18,30,6.40
2013,02,20,18,31,12.90
2013,02,20,18,32,12.90
2013,02,20,18,33,3.20
2013,02,20,18,34,1.60
2013,02,20,18,35,12.90
2013,02,20,18,36,8.10
2013,02,20,18,37,6.40
2013,02,20,18,38,9.60
2013,02,20,18,40,1.60
2013,02,20,18,41,1.60
2013,02,20,18,42,6.40
2013,02,20,18,43,1.60
2013,02,20,18,45,8.10
2013,02,20,18,46,9.60
2013,02,20,18,47,11.30
2013,02,20,18,48,14.50
2013,02,20,18,49,12.90
2013,02,20,18,50,11.30
2013,02,20,18,51,14.50
2013,02,20,18,52,6.40
2013,02,20,18,53,3.20
2013,02,20,18,54,8.10
2013,02,20,18,55,16.10
2013,02,20,18,56,11.30
2013,02,20,18,57,9.60
2013,02,20,18,58,9.60
2013,02,20,18,59,6.40
2013,02,20,19,00,1.60
2013,02,20,19,01,8.10
2013,02,20,19,02,14.50
2013,02,20,19,03,3.20
2013,02,20,19,04,8.10
2013,02,20,19,05,8.10
2013,02,20,19,06,6.40
2013,02,20,19,07,1.60
2013,02,20,19,08,9.60
2013,02,20,19,09,14.50
2013,02,20,19,10,11.30
2013,02,20,19,11,11.30
2013,02,20,19,12,6.40
2013,02,20,19,13,8.10
2013,02,20,19,14,8.10
2013,02,20,19,15,11.30
2013,02,20,19,16,8.10
2013,02,20,19,17,11.30
2013,02,20,19,19,9.60
2013,02,20,19,20,3.20
2013,02,20,19,21,9.60
2013,02,20,19,22,9.60
2013,02,20,19,23,12.90
2013,02,20,19,24,9.60
2013,02,20,19,25,8.10
2013,02,20,19,26,12.90
2013,02,20,19,27,12.90
2013,02,20,19,28,12.90
2013,02,20,19,29,12.90
2013,02,20,19,30,12.90
2013,02,20,19,31,11.30
2013,02,20,19,32,6.40
2013,02,20,19,33,11.30
2013,02,20,19,34,12.90
2013,02,20,19,35,12.90
2013,02,20,19,36,9.60
2013,02,20,19,37,14.50
2013,02,20,19,38,14.50
2013,02,20,19,39,11.30
2013,02,20,19,40,9.60
2013,02,20,19,41,8.10
2013,02,20,19,42,14.50
2013,02,20,19,43,12.90
2013,02,20,19,44,12.90
2013,02,20,19,45,12.90
2013,02,20,19,46,11.30
2013,02,20,19,47,11.30
2013,02,20,19,48,12.90
2013,02,20,19,49,14.50
2013,02,20,19,50,19.30
2013,02,20,19,51,14.50
2013,02,20,19,52,19.30
2013,02,20,19,53,11.30
2013,02,20,19,54,11.30
2013,02,20,19,55,11.30
2013,02,20,19,56,14.50
2013,02,20,19,57,19.30
2013,02,20,19,58,12.90
2013,02,20,19,59,9.60
2013,02,20,20,00,8.10
2013,02,20,20,01,12.90
2013,02,20,20,02,8.10
2013,02,20,20,03,9.60
2013,02,20,20,04,8.10
2013,02,20,20,05,14.50
2013,02,20,20,06,11.30
2013,02,20,20,07,11.30
2013,02,20,20,08,8.10
2013,02,20,20,09,14.50
2013,02,20,20,10,8.10
2013,02,20,20,11,8.10
2013,02,20,20,12,11.30
2013,02,20,20,13,12.90
2013,02,20,20,14,16.10
2013,02,20,20,15,6.40
2013,02,20,20,16,11.30
2013,02,20,20,17,6.40
2013,02,20,20,18,8.10
2013,02,20,20,19,8.10
2013,02,20,20,20,8.10
2013,02,20,20,21,11.30
2013,02,20,20,22,12.90
2013,02,20,20,23,12.90
2013,02,20,20,24,6.40
2013,02,20,20,25,14.50
2013,02,20,20,26,16.10
2013,02,20,20,27,16.10
2013,02,20,20,28,12.90
2013,02,20,20,29,14.50
2013,02,20,20,30,14.50
2013,02,20,20,31,9.60
2013,02,20,20,32,11.30
2013,02,20,20,33,11.30
2013,02,20,20,34,9.60
2013,02,20,20,35,1.60
2013,02,20,20,36,8.10
2013,02,20,20,37,8.10
2013,02,20,20,38,12.90
2013,02,20,20,39,11.30
2013,02,20,20,40,11.30
2013,02,20,20,41,11.30
2013,02,20,20,42,9.60
2013,02,20,20,43,11.30
2013,02,20,20,44,11.30
2013,02,20,20,45,8.10
2013,02,20,20,46,12.90
2013,02,20,20,47,11.30
2013,02,20,20,48,11.30
2013,02,20,20,49,11.30
2013,02,20,20,50,14.50
2013,02,20,20,51,14.50
2013,02,20,20,52,6.40
2013,02,20,20,53,8.10
2013,02,20,20,54,6.40
2013,02,20,20,55,6.40
2013,02,20,20,56,9.60
2013,02,20,20,57,12.90
2013,02,20,20,58,14.50
2013,02,20,20,59,9.60
2013,02,20,21,00,9.60
2013,02,20,21,01,14.50
2013,02,20,21,02,11.30
2013,02,20,21,03,12.90
2013,02,20,21,04,14.50
2013,02,20,21,05,12.90
2013,02,20,21,06,11.30
2013,02,20,21,07,12.90
2013,02,20,21,08,9.60
2013,02,20,21,09,9.60
2013,02,20,21,10,12.90
2013,02,20,21,11,1.60
2013,02,20,21,12,14.50
2013,02,20,21,13,9.60
2013,02,20,21,14,6.40
2013,02,20,21,15,8.10
2013,02,20,21,16,11.30
2013,02,20,21,17,12.90
2013,02,20,21,18,14.50
2013,02,20,21,19,12.90
2013,02,20,21,20,8.10
2013,02,20,21,21,3.20
2013,02,20,21,22,6.40
2013,02,20,21,23,8.10
2013,02,20,21,24,16.10
2013,02,20,21,25,9.60
2013,02,20,21,26,9.60
2013,02,20,21,27,8.10
2013,02,20,21,28,12.90
2013,02,20,21,29,9.60
2013,02,20,21,30,12.90
2013,02,20,21,31,6.40
2013,02,20,21,32,12.90
2013,02,20,21,33,11.30
2013,02,20,21,34,8.10
2013,02,20,21,35,11.30
2013,02,20,21,36,8.10
2013,02,20,21,37,12.90
2013,02,20,21,38,12.90
2013,02,20,21,39,11.30
2013,02,20,21,40,9.60
2013,02,20,21,41,8.10
2013,02,20,21,42,11.30
2013,02,20,21,43,8.10
2013,02,20,21,47,3.20
2013,02,20,21,48,8.10
2013,02,20,21,49,3.20
2013,02,20,21,50,9.60
2013,02,20,21,51,6.40
2013,02,20,21,52,8.10
2013,02,20,21,53,1.60
2013,02,20,21,54,6.40
2013,02,20,21,55,6.40
2013,02,20,21,56,11.30
2013,02,20,21,57,9.60
2013,02,20,21,58,12.90
2013,02,20,21,59,12.90
2013,02,20,22,00,11.30
2013,02,20,22,01,9.60
2013,02,20,22,02,20.90
2013,02,20,22,03,20.90
2013,02,20,22,04,17.70
2013,02,20,22,05,17.70
2013,02,20,22,06,12.90
2013,02,20,22,07,12.90
2013,02,20,22,08,14.50
2013,02,20,22,09,12.90
2013,02,20,22,10,11.30
2013,02,20,22,11,17.70
2013,02,20,22,12,12.90
2013,02,20,22,13,11.30
2013,02,20,22,14,9.60
2013,02,20,22,15,12.90
2013,02,20,22,16,12.90
2013,02,20,22,17,9.60
2013,02,20,22,18,9.60
2013,02,20,22,19,9.60
2013,02,20,22,20,11.30
2013,02,20,22,21,9.60
2013,02,20,22,22,8.10
2013,02,20,22,23,14.50
2013,02,20,22,24,11.30
2013,02,20,22,25,14.50
2013,02,20,22,26,11.30
2013,02,20,22,27,11.30
2013,02,20,22,28,9.60
2013,02,20,22,29,9.60
2013,02,20,22,30,6.40
2013,02,20,22,31,9.60
2013,02,20,22,32,9.60
2013,02,20,22,33,9.60
2013,02,20,22,34,1.60
2013,02,20,22,35,8.10
2013,02,20,22,37,14.50
2013,02,20,22,38,3.20
2013,02,20,22,39,1.60
2013,02,20,22,40,9.60
2013,02,20,22,41,8.10
2013,02,20,22,42,1.60
2013,02,20,22,43,6.40
2013,02,20,22,44,12.90
2013,02,20,22,45,11.30
2013,02,20,22,46,14.50
2013,02,20,22,47,17.70
2013,02,20,22,48,12.90
2013,02,20,22,49,6.40
2013,02,20,22,50,6.40
2013,02,20,22,51,8.10
2013,02,20,22,52,12.90
2013,02,20,22,53,11.30
2013,02,20,22,54,17.70
2013,02,20,22,55,14.50
2013,02,20,22,56,12.90
2013,02,20,22,57,16.10
2013,02,20,22,58,8.10
2013,02,20,22,59,11.30
2013,02,20,23,00,14.50
2013,02,20,23,01,14.50
2013,02,20,23,02,8.10
2013,02,20,23,03,11.30
2013,02,20,23,04,12.90
2013,02,20,23,05,11.30
2013,02,20,23,06,9.60
2013,02,20,23,07,11.30
2013,02,20,23,08,22.50
2013,02,20,23,09,14.50
2013,02,20,23,10,9.60
2013,02,20,23,11,9.60
2013,02,20,23,12,14.50
2013,02,20,23,13,14.50
2013,02,20,23,14,8.10
2013,02,20,23,15,11.30
2013,02,20,23,16,11.30
2013,02,20,23,17,6.40
2013,02,20,23,18,9.60
2013,02,20,23,19,9.60
2013,02,20,23,20,9.60
2013,02,20,23,21,14.50
2013,02,20,23,22,14.50
2013,02,20,23,23,6.40
2013,02,20,23,24,11.30
2013,02,20,23,25,8.10
2013,02,20,23,26,8.10
2013,02,20,23,27,14.50
2013,02,20,23,28,14.50
2013,02,20,23,29,14.50
2013,02,20,23,30,9.60
2013,02,20,23,31,12.90
2013,02,20,23,32,11.30
2013,02,20,23,33,6.40
2013,02,20,23,34,1.60
2013,02,20,23,35,8.10
2013,02,20,23,36,11.30
2013,02,20,23,37,9.60
2013,02,20,23,38,11.30
2013,02,20,23,39,11.30
2013,02,20,23,40,11.30
2013,02,20,23,41,11.30
2013,02,20,23,42,9.60
2013,02,20,23,43,3.20
2013,02,20,23,44,1.60
2013,02,20,23,45,6.40
2013,02,20,23,47,1.60
2013,02,20,23,48,6.40
2013,02,20,23,49,3.20
2013,02,20,23,50,3.20
2013,02,20,23,51,1.60
2013,02,20,23,52,8.10
2013,02,20,23,53,3.20
2013,02,20,23,54,1.60
2013,02,20,23,57,1.60
